STARLINK-1810, 46709

Orbit data source: Space-Track

STARLINK-1810, 46709 is a payload satellite owned by SpaceX/Seattle (US) in LEO that was launched on Sun, 18 Oct 2020 UTC via an FALCON 9 launch vehicle from the Air Force Eastern Test Range (AFETR). Payload-class satellites include a variety of spacecraft equipped with specific instruments for various scientific and technological missions. These include communications satellites like Starlink; space stations such as the ISS; scientific satellites like the Hubble; Earth observation satellites from companies like Planet Labs, Umbra, and HawkEye 360; GPS; miniature CubeSats for education and research; and military/defense satellites.

Loading next visibility...
Identifier
46709, 2020-073AR
Orbit
LEO
Country
Flag of USUS
Related business
Manufacturer
SpaceX/Seattle
Mission
Operational Commercial Communications
Bus & Motor
STARLINK, Unknown motor
Mass
260 kg wet, ~248 kg dry
Launch date (UTC)
2020-10-18 (5 years ago)
Launch vehicle
FALCON 9
Launch site
Air Force Eastern Test Range (AFETR)
Object type
Payload
Rocket body
Debris
Shape & HBR
Box + 1 Pan, 10.1 m
Radar Cross Section
13.562 m², Large (>1 m²)

Expand to show TLE details & history
Last TLE update: 16 hours ago

TLE from 16 hours ago
0 STARLINK-1810
1 46709U 20073AR  25286.48210147  .00016955  00000-0  11545-2 0  9992
2 46709  53.0526 197.5839 0001513 102.3617 257.7542 15.06395928274723
Epoch: 2025-10-13T11:34Z
TLE epoch observation values (Epoch: 2025-10-13T11:34:13.567Z)
Latitude
0.00005°
Longitude
1.74316°
Altitude
548.325 km
Speed
7.589 km/s
True Right ascension
13h 10m 20s
True Declination
0° 00' 00"
Sunlit
Object was in daylight at epoch
Visualization orbit readout
Latitude
Unknown
Longitude
Unknown
Altitude
Unknown
Speed
Unknown
Apparent Right ascension
Unknown
Apparent Declination
Unknown
Sunlit
N/A
Visualization observer readout
Local Sidereal Time
22:11:36
Azimuth
Unknown
Elevation
Unknown
Doppler factor
Unknown
Orbital elements
Apogee altitude
548.543 km
Perigee altitude
546.447 km
Semi-major axis
6,925.632 km
Eccentricity
0.00015
Inclination
53.0526°
RAAN
197.5839°
Arg. of periapsis
102.3617°
True anomaly
257.73726°
Mean anomaly
257.7542°
Eccentric anomaly
257.74573°
Mean motion
3.76577 °/min
Orbital period
95.6 mins
BSTAR
0.0011545
Loading maneuver chart data...
Computing Atmospheric mass density...
Loading historical data...
Loading historical data...
Loading historical data...
Loading historical data...
Loading historical data...
Loading historical data...
Loading historical data...

Documentation

Showing up to 5 results
|